Location: Dentlein
(49.1477°N, 10.4231°E)
Time: 10:11:47
(UTC+00:00)

Cosmos 1408 - Pass Details

Date: 23 May 2024
Orbit: 363 x 377 km, 82.6° (Epoch: 15 June)

Event Time Altitude Azimuth Distance (km) Brightness Sun altitude
Exits shadow 01:23:15 22° 159° (SSE) 849 3.4 -14.6°
Maximum altitude 01:24:47 46° 95° (E) 502 2.8 -14.5°
Drops below altitude 10° 01:27:38 10° 21° (NNE) 1,366 6.2 -14.2°
Sets 01:29:39 0° 15° (NNE) 2,220 7.5 -14.1°
